Hourly Weather Roundup
Issued by NWS Central Illinois

Home | Current Version | Previous Version | Text Only | Print | Product List | Glossary On
Versions: 1 2 3 4 5 6 7 8 9 10 11 12 13 14 15 16 17 18 19 20 21 22 23 24 25 26 27 28 29 30 31 32 33 34 35 36 37 38 39 40 41 42 43 44 45 46 47 48 49 50
000
NZUS43 KILX 230910
HWRILX

AREA WEATHER ROUNDUP
NATIONAL WEATHER SERVICE, LINCOLN IL
400 AM CDT WED APR 23 2014


CITY           SKY/WX    TMP DP  RH WIND       PRES   REMARKS
BLOOMINGTON    PTCLDY    33  27  79 NE6       30.12R WCI  27
CHAMPAIGN      CLEAR     37  28  70 NE8       30.09R WCI  31
DANVILLE       CLEAR     32  28  85 N7        30.07R WCI  26
DECATUR        PTCLDY    34  28  79 NE7       30.10R WCI  28
FLORA          NOT AVBL
GALESBURG      CLEAR     37  32  81 E6        30.10R WCI  33
JACKSONVILLE   CLEAR     41  33  73 NE12      30.10R WCI  34
LACON          PTCLDY    30  28  92 CALM      30.12R
LAWRENCEVILLE  CLEAR     46  34  62 NE9       30.07R
LITCHFIELD     CLEAR     42  36  76 E10       30.07R
$$


CITY           SKY/WX    TMP DP  RH WIND       PRES   REMARKS
LINCOLN        CLEAR     38  31  76 CALM      30.12R
MACOMB         CLEAR     40  32  75 E10       30.11S WCI  33
MATTOON        PTCLDY    40  29  64 NE5       30.08R
MT CARMEL AP   CLEAR     46  37  71 NE6       30.06R
OLNEY-NOBLE AP CLEAR     45  36  70 NE5       30.07R
PARIS          PTCLDY    39  30  70 CALM      30.10R
PEORIA         PTCLDY    41  27  57 E10       30.11R WCI  35
PONTIAC        CLEAR     36  30  80 CALM      30.12R
RANTOUL        CLEAR     38  29  69 CALM      30.11R
ROBINSON       CLEAR     44  36  72 NE8       30.09R
SPRINGFIELD    CLEAR     41  31  67 E10       30.11R WCI  35
TAYLORVILLE    CLEAR     41  30  65 E10       30.09R WCI  35
$$

...REGIONAL REPORTS...


CITY           SKY/WX    TMP DP  RH WIND       PRES   REMARKS
CHICAGO O`HARE CLEAR     36  26  67 N6        30.13R WCI  31
KANKAKEE       CLEAR     35  30  82 N5        30.12R WCI  31
MOLINE         PTCLDY    35  30  82 E5        30.11R WCI  31
MOUNT VERNON   CLEAR     48  30  49 N8        30.05R
PITTSFIELD     PTCLDY    47  33  58 NE9       30.08R
QUINCY         PTCLDY    47  31  53 E10       30.06R
ROCKFORD       CLEAR     36  27  69 E6        30.15R WCI  31
$$


CITY           SKY/WX    TMP DP  RH WIND       PRES   REMARKS
BURLINGTON     CLEAR     42  33  70 E9        30.08R
CEDAR RAPIDS   PTCLDY    43  31  62 E12       30.07R
DES MOINES     MOCLDY    52  32  46 E9        30.03S
KIRKSVILLE     CLEAR     45  32  60 E8        30.04S
OTTUMWA        PTCLDY    45  33  63 E8        30.04S
ST LOUIS       PTCLDY    51  32  48 NE7       30.05R
$$


CITY           SKY/WX    TMP DP  RH WIND       PRES   REMARKS
TERRE HAUTE    CLEAR     41  30  65 N7        30.08R
EVANSVILLE     CLEAR     48  37  65 NE9       30.04R
INDIANAPOLIS   CLEAR     38  26  62 N8        30.05R WCI  32
LAFAYETTE      CLEAR     34  27  75 N6        30.09R WCI  29
MADISON        CLEAR     32  27  81 CALM      30.14R
MILWAUKEE      CLEAR     33  26  75 N6        30.15R WCI  28
$$




USA.gov is the U.S. government's official web portal to all federal, state and local government web resources and services.